Retour au catalogue

STARLINK-33622

ActifCommunicationsVLEO
NORAD 63066·PAYLOAD·🇺🇸 United States

Lancé Feb 21, 2025 depuis Cape Canaveral Space Force Station

Loading…

Prochains Passages (prochaines 24 heures)

TLE

FraisSource: CelesTrak SupGP

Époque: Sep 15, 2026, 02:26 UTC

1 63066C 25035Q   26258.10187500  .00012596  00000+0  45633-3 0  2585
2 63066  43.0022 157.1133 0001336 281.4708 341.1060 15.27564980    11

Suivez STARLINK-33622 en temps réel avec AllMySat

Download on the App Store